Weather History for Greensboro, NC

Change the Weather History Date:

Friday, September 27, 2013

  Actual Average Record
Temperature  
Mean Temperature 64 °F 66 °F  
Max Temperature 75 °F 76 °F 90 °F (1986)
Min Temperature 53 °F 56 °F 39 °F (1940)
Degree Days  
Heating Degree Days 1 2  
Month to date heating degree days 7 21  
Since 1 July heating degree days 9 22  
Cooling Degree Days 0 3  
Month to date cooling degree days 172 175  
Year to date cooling degree days 1331 1437  
Growing Degree Days 14 (Base 50)    
Moisture  
Dew Point 52 °F    
Average Humidity 67    
Maximum Humidity 93    
Minimum Humidity 41    
Precipitation  
Precipitation 0.00 in 0.13 in 2.35 in (2004)
Month to date precipitation 2.13 3.83  
Year to date precipitation 40.52 32.62  
Sea Level Pressure  
Sea Level Pressure 30.13 in    
Wind  
Wind Speed 6 mph (NE)    
Max Wind Speed 14 mph    
Max Gust Speed 18 mph    
Visibility 10 miles    
Events      
T = Trace of Precipitation, MM = Missing Value Source: NWS Daily Summary

Daily Weather History Graph

Daily Weather History Graph

Search for Another Location

Airport:

Trip Planner

Search our weather history database for the weather conditions in past years. The results will help you decide how hot, cold, wet, or windy it might be!

Date:

Astronomy

Sep. 27, 2013 Rise Set
Actual Time 7:11 AM EDT 7:08 PM EDT
Civil Twilight 6:46 AM EDT 7:34 PM EDT
Nautical Twilight 6:16 AM EDT 8:04 PM EDT
Astronomical Twilight 5:46 AM EDT 8:34 PM EDT
Moon 12:16 AM EDT (9/27) 2:36 PM EDT (9/27)
Length of Visible Light 12h 48m
Length of Day
11h 57m
Last Quarter, 45% of the Moon is Illuminated
Sep 27
Last Quarter
Oct 4
New
Oct 11
First Quarter
Oct 18
Full
Oct 26
Last Quarter

Hourly Weather History & Observations

Time (EDT) Temp. Dew Point Humidity Pressure Visibility Wind Dir Wind Speed Gust Speed Precip Events Conditions
12:54 AM 57.0 °F 51.1 °F 81% 30.06 in 10.0 mi NE 3.5 mph - N/A   Clear
1:54 AM 55.9 °F 51.1 °F 84% 30.06 in 10.0 mi Calm Calm - N/A   Clear
2:54 AM 55.9 °F 51.1 °F 84% 30.06 in 10.0 mi Calm Calm - N/A   Clear
3:54 AM 55.0 °F 51.1 °F 86% 30.06 in 10.0 mi NNE 3.5 mph - N/A   Clear
4:54 AM 54.0 °F 51.1 °F 90% 30.07 in 10.0 mi Calm Calm - N/A   Clear
5:54 AM 53.1 °F 50.0 °F 89% 30.09 in 10.0 mi North 3.5 mph - N/A   Clear
6:54 AM 53.1 °F 50.0 °F 89% 30.11 in 10.0 mi NNE 4.6 mph - N/A   Clear
7:54 AM 55.0 °F 51.1 °F 86% 30.13 in 10.0 mi NNE 5.8 mph - N/A   Clear
8:54 AM 59.0 °F 53.1 °F 81% 30.15 in 10.0 mi NNE 5.8 mph - N/A   Clear
9:54 AM 64.0 °F 55.9 °F 75% 30.16 in 10.0 mi NE 5.8 mph - N/A   Partly Cloudy
10:54 AM 68.0 °F 55.0 °F 63% 30.17 in 10.0 mi NNE 8.1 mph - N/A   Scattered Clouds
11:54 AM 70.0 °F 54.0 °F 57% 30.16 in 10.0 mi NE 10.4 mph - N/A   Scattered Clouds
12:54 PM 72.0 °F 53.1 °F 51% 30.16 in 10.0 mi East 11.5 mph 18.4 mph N/A   Scattered Clouds
1:54 PM 73.0 °F 52.0 °F 48% 30.14 in 10.0 mi NE 8.1 mph - N/A   Mostly Cloudy
2:54 PM 72.0 °F 51.1 °F 48% 30.12 in 10.0 mi East 9.2 mph - N/A   Scattered Clouds
3:54 PM 71.1 °F 50.0 °F 47% 30.12 in 10.0 mi ENE 10.4 mph - N/A   Scattered Clouds
4:54 PM 73.0 °F 48.9 °F 42% 30.12 in 10.0 mi NNE 6.9 mph - N/A   Scattered Clouds
5:54 PM 72.0 °F 51.1 °F 48% 30.12 in 10.0 mi ENE 10.4 mph - N/A   Scattered Clouds
6:54 PM 66.9 °F 52.0 °F 59% 30.13 in 10.0 mi ENE 8.1 mph - N/A   Partly Cloudy
7:54 PM 64.0 °F 53.1 °F 67% 30.14 in 10.0 mi ENE 5.8 mph - N/A   Partly Cloudy
8:54 PM 61.0 °F 53.1 °F 75% 30.16 in 10.0 mi East 5.8 mph - N/A   Clear
9:54 PM 61.0 °F 53.1 °F 75% 30.17 in 10.0 mi East 3.5 mph - N/A   Clear
10:54 PM 61.0 °F 53.1 °F 75% 30.18 in 10.0 mi ENE 3.5 mph - N/A   Clear
11:54 PM 57.9 °F 53.1 °F 84% 30.20 in 10.0 mi North 3.5 mph - N/A   Clear